一网星座-0458星 (ONEWEB-0458 )

导读

ONEWEB-0458是英国太空互联网公司OneWeb旗下的低轨宽带通信卫星,于2022年2月10日发射入轨,运行在约1200公里高度的近地轨道。它配备Ku/Ka波段天线与氙等离子推力器,单星发射重量147.5公斤,设计寿命超7年,属于OneWeb全球低轨卫星星座组网卫星,为航空、海事及偏远地区提供低时延宽带接入服务,助力实现全球无缝互联网覆盖。

基本信息
目录编号:
51648
目录名称:
ONEWEB-0458
国际标识:
2022-012AC
轨道中心:
EARTH
卫星名称:
一网星座-0458星
卫星全名:
一网星座-0458星 (ONEWEB-0458 )
卫星状态:
在轨 (已飞行1585 天)
发射日期:
2022-02-10 UTC
国别 :
英国 (GB)
星等 :
--
轨道信息
数据来源 国际轨道数据 AOE轨道数据
星历时间 2026-06-14T05:44:01+0800
14小时前
查看轨道信息
2026-06-13T01:00:00+0800
1天前
查看轨道信息
半长轴 7599.853km 7599.832km
偏心率 0.0001891 0.0001842
轨道倾角 87.885° 87.885°
近地点辐角 75.952° 76.673°
升交点赤经 36.913° 37.152°
平近点角 284.182° 38.883°
近地点 1220.278km 1220.295km
远地点 1223.154km 1223.095km
周期 109.892分钟 109.892分钟
每日圈数 13.103732 13.103787
详细信息
平衡模式:
三轴稳定
覆盖范围:
全球
运营商:
一网卫星公司
运营商所在国:
英国
制造商(研发单位):
一网卫星公司
制造商所在国:
英国
使用方式:
暂无
卫星简介
OneWeb卫星网络由648颗重约125公斤的微型卫星组成,运行在1200公里的轨道上。 每颗卫星都能够提供至少每秒8千兆位的吞吐量,以使用其高吞吐量的Ku频段有效载荷为家庭和移动平台提供互联网接入。该卫星仍在工作。
2D轨道图
3D轨道图
轨道高度分析图
轨道倾角分析图
轨道综合分析图
查看轨道综合分析图